Regional Weather Roundup
Issued by NWS

Home | Current Version | Previous Version | Graphics & Text | Print | Product List | Glossary On
Versions: 1 2 3 4 5 6 7 8 9 10 11 12 13 14 15 16 17 18 19 20 21 22 23 24 25 26 27 28 29 30 31 32 33 34 35 36 37 38 39 40 41 42 43 44 45 46 47 48 49 50
000
ASUS43 KLOT 272209
RWRIL

ILLINOIS REGIONAL WEATHER ROUNDUP
NATIONAL WEATHER SERVICE CHICAGO/ROMEOVILLE IL
500 PM CDT THU APR 27 2017

NOTE: "FAIR" INDICATES FEW OR NO CLOUDS BELOW 12,000 FEET WITH NO
SIGNIFICANT WEATHER AND/OR OBSTRUCTIONS TO VISIBILITY.

* THESE STATIONS ARE NOT UNDER NWS QUALITY CONTROL. THEY ALSO MAY NOT
  REPORT WEATHER SUCH AS PRECIPITATION OR FOG.

ILZ001-002-007-009-015-016-024-272300-
NORTHWEST ILLINOIS

CITY           SKY/WX    TMP DP  RH WIND       PRES   REMARKS
MOLINE         CLOUDY    47  36  65 W13       29.73S
SAVANNA*       CLOUDY    43  34  70 W14       29.72R
$$

ILZ003-004-008-010-011-017-018-272300-
NORTH CENTRAL ILLINOIS

CITY           SKY/WX    TMP DP  RH WIND       PRES   REMARKS
ROCKFORD       CLOUDY    44  34  67 SW15G23   29.71R
FREEPORT*      CLOUDY    41  33  74 W14G24    29.71R
ROCHELLE*      CLOUDY    42  37  80 SW22G28   29.72R
DE KALB*       CLOUDY    42  37  80 W20       29.71R
PERU*          CLOUDY    45  38  77 W20       29.74R
$$

ILZ005-006-012>014-019>023-272300-
NORTHEAST ILLINOIS

CITY           SKY/WX    TMP DP  RH WIND       PRES   REMARKS
CHICAGO-OHARE  CLOUDY    46  37  71 W18G30    29.70R
CHICAGO-MIDWAY CLOUDY    47  38  71 SW16G28   29.71R
AURORA         CLOUDY    46  38  73 SW16      29.72R
LANSING*       CLOUDY    47  41  79 SW14G20   29.72S
JOLIET*        CLOUDY    48  40  73 SW10G18   29.74R
WAUKEGAN       CLOUDY    44  37  76 W12G20    29.67R
DUPAGE AIRPORT CLOUDY    45  39  79 W13       29.71R
KANKAKEE*      CLOUDY    49  41  74 SW14G20   29.76R
WHEELING       CLOUDY    44  39  82 W12G21    29.70R
MORRIS*        CLOUDY    47  39  75 W17G23    29.73R
ROMEOVILLE*    CLOUDY    46  41  85 W13       29.73R
NORTHERLY ISL    N/A     47  37  68 W7          N/A
$$

LMZ740>746-272300-
SOUTHERN LAKE MICHIGAN

STATION/POSITION SKY/WX   TEMP    WIND        PRES    VSBY  WAVE
                          AIR SEA DIR/SP/G                  HT/PER
                          (F)     (DEG/KT/KT) (MB)    (MI)  (FT/S)
SOUTHERN BUOY              43 41  240/ 14/ 16 1004.7          4/ 5
HARRISON CRIB              47     240/ 17/ 20   N/A
BURNHAM HARBOR             47     290/ 11/ 17   N/A
CALUMET HARBOR             47     220/ 10/ 19 1005.6R
BURNS HARBOR               48     230/ 19/ 23 1006.8R
MICHIGAN CITY              47     220/ 21/ 24   N/A
MICHIGAN CITY 6N           47 47                N/A           4/ 4
ST. JOSEPH                 46 48  250/ 14/ 17 1007.1          4/ 5
$$

ILZ025>027-034>036-040-047-049-050-058-095>099-272300-
WEST-CENTRAL ILLINOIS

CITY           SKY/WX    TMP DP  RH WIND       PRES   REMARKS
QUINCY         PTSUNNY   56  42  59 SW8       29.73F
GALESBURG*     CLOUDY    48  40  71 W12G18    29.73R
MACOMB*        CLOUDY    52  43  71 W13       29.76R
JACKSONVILLE*  PTSUNNY   55  43  64 SW9       29.75F
PITTSFIELD*    MOSUNNY   56  43  61 SW12      29.75F
$$

ILZ028>032-037-038-041>044-048-051>054-059>061-272300-
CENTRAL ILLINOIS

CITY           SKY/WX    TMP DP  RH WIND       PRES   REMARKS
PONTIAC        CLOUDY    49  44  81 W12       29.75S
BLOOMINGTON    CLOUDY    49  40  71 W14       29.75S
DECATUR        PTSUNNY   51  43  74 W13G21    29.78R
PEORIA         PTSUNNY   52  40  63 W13G20    29.74F
LACON*         CLOUDY    49  38  67 W9        29.72F
LINCOLN*       CLOUDY    53  44  69 SW3       29.75S
SPRINGFIELD    CLOUDY    54  44  69 W15       29.77S
TAYLORVILLE    CLOUDY    52  43  72 SW8G17    29.78S
$$

ILZ033-039-045-046-055>057-062-063-272300-
EAST-CENTRAL ILLINOIS

CITY           SKY/WX    TMP DP  RH WIND       PRES   REMARKS
CHAMPAIGN      CLOUDY    50  41  71 W15G21    29.77S
RANTOUL*       CLOUDY    51  43  73 W13G21    29.76S
MATTOON        CLOUDY    52  44  74 SW8       29.78R
PARIS*         CLOUDY    52  45  77 W12       29.80R
$$

ILZ079-100>102-272300-
SOUTHWEST ILLINOIS

CITY           SKY/WX    TMP DP  RH WIND       PRES   REMARKS
ALTON          MOSUNNY   57  41  54 S7        29.77F
BELLEVILLE     SUNNY     61  44  54 S5        29.76F
CAHOKIA*       SUNNY     61  42  49 CALM      29.76F
SPARTA*        MOSUNNY   61  45  55 S5        29.79F
$$

ILZ064>066-069>071-074>076-080>082-084>086-088>090-092>094-272300-
SOUTH-CENTRAL ILLINOIS

CITY           SKY/WX    TMP DP  RH WIND       PRES   REMARKS
CARBONDALE     CLOUDY    60  47  61 SW7       29.79F
CAIRO*         SUNNY     60  47  64 SW5       29.80F
EFFINGHAM*     CLOUDY    54  45  71 SW8G16    29.82R
MARION         PTSUNNY   59  48  67 S6        29.81F
MT. VERNON     PTSUNNY   57  46  66 SW8       29.81S
CENTRALIA*     MOSUNNY   57  46  66 SW8       29.79F
SALEM*         CLOUDY    58  46  63 SW6       29.80S
METROPOLIS*    MOSUNNY   61  48  63 SW3       29.82F
$$

ILZ067-068-072-073-078-083-087-091-272300-
SOUTHEAST ILLINOIS

CITY           SKY/WX    TMP DP  RH WIND       PRES   REMARKS
LAWRENCEVILLE  CLOUDY    56  46  69 SW14      29.82R
FLORA*         CLOUDY    57  46  66 SW7       29.82R
FAIRFIELD*     PTSUNNY   56  45  67 S6        29.81S
HARRISBURG*    PTSUNNY   59  48  67 SW9       29.83F
ROBINSON*      CLOUDY    54  46  75 SW10      29.83R
CARMI*         MOSUNNY   58  47  66 SW7       29.83R
$$

ABBREVIATIONS USED IN REMARKS
   TC - TEMPERATURE IN CELSIUS
  WCI - WIND CHILL INDEX
   HX - HEAT INDEX
  VSB - VISIBILITY
$$





USA.gov is the U.S. government's official web portal to all federal, state and local government web resources and services.